Regional Weather Roundup
Issued by NWS

Home | Current Version | Previous Version | Graphics & Text | Print | Product List | Glossary On
Versions: 1 2 3 4 5 6 7 8 9 10 11 12 13 14 15 16 17 18 19 20 21 22 23 24 25 26 27 28 29 30 31 32 33 34 35 36 37 38 39 40 41 42 43 44 45 46 47 48 49 50
000
ASUS43 KFSD 262010
RWRSD

WEATHER ROUNDUP FOR SOUTH DAKOTA
NATIONAL WEATHER SERVICE SIOUX FALLS SD
300 PM CDT TUE JUL 26 2016

NOTE: "FAIR" INDICATES FEW OR NO CLOUDS BELOW 12,000 FEET WITH NO
SIGNIFICANT WEATHER AND/OR OBSTRUCTIONS TO VISIBILITY.


SDZ001>005-009-010-012>017-262100-
NORTHWEST AND NORTH CENTRAL SOUTH DAKOTA

CITY           SKY/WX    TMP DP  RH WIND       PRES   REMARKS
BUFFALO          N/A     85  57  38 N9        29.99F
FAITH            N/A     88  49  25 VRB6G17   30.00R
MOBRIDGE       CLOUDY    84  66  54 NE16      29.90R
$$

SDZ012>016-024>037-041>051-057-063-072>074-262100-
SOUTHWEST AND SOUTH CENTRAL SOUTH DAKOTA

CITY           SKY/WX    TMP DP  RH WIND       PRES   REMARKS
RAPID CTY ARPT SUNNY     87  57  35 S9        30.03F
PIERRE         PTSUNNY   93  58  30 N16G22    29.92F
CUSTER         SUNNY     79  51  37 E13G25    30.18F
ELLSWORTH AFB  PTSUNNY   87  57  36 E9        30.03F
PHILIP         MOSUNNY   91  58  32 E14G23    29.96F
PINE RIDGE     SUNNY     92  64  39 SE15G24   29.98F
WINNER         FAIR      91  62  37 S10       29.93F
$$

SDZ004>011-016>023-039-040-262100-
NORTHEAST SOUTH DAKOTA

CITY           SKY/WX    TMP DP  RH WIND       PRES   REMARKS
ABERDEEN       LGT RAIN  71  63  75 E6        30.02R
WATERTOWN      LGT RAIN  73  64  73 N7        30.05R
BROOKINGS      CLOUDY    85  65  51 S9        30.03R
SISSETON         N/A     79  60  52 NW18G29   29.97R
$$

SDZ017-020-022-023-036>040-048>070-262100-
SOUTHEAST SOUTH DAKOTA

CITY           SKY/WX    TMP DP  RH WIND       PRES   REMARKS
SIOUX FALLS    PTSUNNY   86  65  49 S15       30.02S
HURON          LGT RAIN  72  68  87 N24G31    30.01R
CHAMBERLAIN    CLOUDY    83  73  72 NE7       29.93F
MITCHELL       PTSUNNY   88  60  38 S16G22    29.94F
YANKTON        SUNNY     90  63  40 S13       29.99F
$$

ABBREVIATIONS USED IN REMARKS
   TC - TEMPERATURE IN CELSIUS
  WCI - WIND CHILL INDEX
   HX - HEAT INDEX
  VSB - VISIBILITY




USA.gov is the U.S. government's official web portal to all federal, state and local government web resources and services.